Regional Weather Roundup
Issued by NWS

Home | Current Version | Previous Version | Graphics & Text | Print | Product List | Glossary On
Versions: 1 2 3 4 5 6 7 8 9 10 11 12 13 14 15 16 17 18 19 20 21 22 23 24 25 26 27
000
ASUS45 KBOI 221910
RWRID

IDAHO REGIONAL WEATHER ROUNDUP
NATIONAL WEATHER SERVICE BOISE ID
100 PM MDT TUE AUG 22 2017

NOTE: "FAIR" INDICATES FEW OR NO CLOUDS BELOW 12000 FEET
WITH NO SIGNIFICANT WEATHER AND/OR OBSTRUCTIONS TO VISIBILITY

IDZ012-014-222000-
SOUTHWEST IDAHO


CITY           SKY/WX    TMP DP  RH WIND       PRES   REMARKS
BOISE          SUNNY     85  44  23 CALM      30.11F
CALDWELL       SUNNY     82  47  29 CALM      30.10F
MOUNTAIN HOME  SUNNY     85  41  20 NE3       30.11F
$$

IDZ016-017-222000-
SOUTHCENTRAL IDAHO


CITY           SKY/WX    TMP DP  RH WIND       PRES   REMARKS
BURLEY         SUNNY     82  38  20 VRB5      30.17F
JEROME         SUNNY     82  43  25 NW3       30.18F
TWIN FALLS     SUNNY     84  41  21 N7        30.18F
$$

IDZ019>023-222000-
SOUTHEAST IDAHO


CITY           SKY/WX    TMP DP  RH WIND       PRES   REMARKS
IDAHO FALLS    SUNNY     81  36  19 VRB3      30.23F
POCATELLO      SUNNY     84  40  21 VRB6      30.21F
REXBURG        SUNNY     79  36  21 SW7       30.24F
$$

IDZ006-010-011-018-031-032-222000-
CENTRAL IDAHO MOUNTAINS


CITY           SKY/WX    TMP DP  RH WIND       PRES   REMARKS
MCCALL         SUNNY     76  43  30 VRB5      30.23F
HAILEY         MOSUNNY   79  43  27 SE10      30.26F
STANLEY          N/A     78  24  13 N6        30.32F
SALMON         SUNNY     75  37  25 NW3       30.17F
CHALLIS        SUNNY     78  37  22 N5        30.21F
$$

IDZ002-004-006-007-026-222000-
NORTHERN IDAHO


CITY           SKY/WX    TMP DP  RH WIND       PRES   REMARKS
LEWISTON       SUNNY     83  47  28 N5        30.01F
LOWELL           N/A     80  47  31 CALM      30.04F
COEUR D`ALENE  SUNNY     83  46  27 VRB5      30.07F
MULLAN PASS    SUNNY     72  36  26 VRB5      30.27F
$$




USA.gov is the U.S. government's official web portal to all federal, state and local government web resources and services.